Powrót do katalogu

DIAMANT DEB

AktywnyLEO
NORAD 2685·DEBRIS·🇫🇷 France

Wystrzelony Feb 15, 1967 z Hammaguir Space Track Range

Loading…

Następne Przeloty (najbliższe 24 godziny)

TLE

ŚwieżeSource: Space-Track

Epoka: Sep 14, 2026, 15:14 UTC

1 02685U 67014F   26257.63485498  .00003230  00000-0  54161-3 0  9996
2 02685  38.9339   0.7697 0340897 307.9036  49.1350 14.38620113980363

Śledź DIAMANT DEB w czasie rzeczywistym z AllMySat

Download on the App Store